Location: Newark
(12.4436°N, 0.6167°W)
Time: 09:16:46
(UTC+00:00)

Vanguard 2 - Visible Passes

Search period start: 11 December 2019 00:00
Search period end: 21 December 2019 00:00
Orbit: 553 x 2938 km, 32.9° (Epoch: 10 December)

Date Brightness Start Highest point End Pass type
(mag) Time Alt. Az. Time Alt. Az. Time Alt. Az.
11 Dec 11.2 02:08:26 29° NNE 02:08:26 29° NNE 02:16:32 10° NE visible
11 Dec 10.9 04:09:50 28° NNW 04:16:45 36° N 04:30:52 10° ENE visible
11 Dec 11.0 21:43:43 10° SW 21:43:58 11° SW 21:43:58 11° SW visible
12 Dec 11.1 02:25:12 32° NNE 02:25:12 32° NNE 02:35:13 10° NE visible
12 Dec 10.9 04:26:36 24° NW 04:36:06 38° N 04:50:02 10° ENE visible
12 Dec 10.3 19:56:36 10° S 19:59:23 16° SSE 19:59:23 16° SSE visible
13 Dec 11.0 02:41:57 34° NNE 02:41:57 34° NNE 02:54:10 10° ENE visible
13 Dec 10.8 04:43:21 20° NW 04:55:20 42° NNE 05:09:11 10° E visible
13 Dec 10.0 20:12:57 10° SSW 20:16:14 23° SSE 20:16:14 23° SSE visible
14 Dec 11.9 00:57:19 11° NE 00:57:19 11° NE 00:57:56 10° NE visible
14 Dec 10.9 02:58:43 36° N 02:58:43 36° N 03:13:20 10° ENE visible
14 Dec 10.7 05:00:07 16° NW 05:14:24 48° NNE 05:28:12 10° E visible
14 Dec 9.8 20:29:55 10° SSW 20:33:08 28° S 20:33:08 28° S visible
15 Dec 11.7 01:14:04 15° NE 01:14:04 15° NE 01:16:35 10° NE visible
15 Dec 10.8 03:15:29 36° N 03:17:17 37° N 03:32:39 10° ENE visible
15 Dec 10.6 05:16:53 13° NW 05:33:16 56° NNE 05:47:01 10° E visible
15 Dec 9.9 20:47:18 10° SW 20:50:03 28° SSW 20:50:03 28° SSW visible
16 Dec 11.6 01:30:51 19° NE 01:30:51 19° NE 01:35:31 10° NE visible
16 Dec 10.8 03:32:15 36° NNW 03:36:34 40° NNE 03:52:01 10° ENE visible
16 Dec 10.4 05:33:57 10° NW 05:51:56 67° NNE 06:05:35 10° ESE visible
16 Dec 9.9 19:00:19 10° S 19:04:04 16° SE 19:05:35 15° ESE visible
16 Dec 10.2 21:05:01 10° SW 21:07:01 23° SW 21:07:01 23° SW visible
17 Dec 11.4 01:47:39 24° NE 01:47:39 24° NE 01:54:43 10° ENE visible
17 Dec 10.7 03:49:03 35° NNW 03:55:42 45° NNE 04:11:18 10° E visible
17 Dec 10.3 05:52:12 10° NW 06:10:23 80° NNE 06:23:54 10° ESE visible
17 Dec 9.3 19:16:39 10° SSW 19:21:35 27° SE 19:22:34 26° ESE visible
17 Dec 10.6 21:22:59 10° WSW 21:23:59 16° WSW 21:23:59 16° WSW visible
18 Dec 11.2 02:04:28 29° NE 02:04:28 29° NE 02:14:09 10° ENE visible
18 Dec 10.6 04:05:53 33° NNW 04:14:40 52° NNE 04:30:22 10° E visible
18 Dec 8.7 19:33:42 10° SSW 19:39:09 43° SE 19:39:34 43° SE visible
19 Dec 11.0 02:21:19 35° NNE 02:21:19 35° NNE 02:33:42 10° ENE visible
19 Dec 10.5 04:22:44 30° NW 04:33:25 61° NNE 04:49:13 10° ESE visible
19 Dec 8.3 19:51:11 10° SW 19:56:35 67° SSE 19:56:35 67° SSE visible
20 Dec 10.8 02:38:12 41° NNE 02:38:12 41° NNE 02:53:15 10° E visible
20 Dec 10.4 04:39:37 26° NW 04:51:58 73° NNE 05:07:46 10° ESE visible
20 Dec 9.5 18:04:03 10° S 18:06:55 15° SE 18:10:24 10° E visible
20 Dec 8.5 20:08:59 10° WSW 20:13:37 63° WSW 20:13:37 63° WSW visible
